^^
Grace C. Lehan Memorial Weather Station Historical Data
Daily Summary for January 12, 2021 Units:  Metric    English   Both
Daily Weekly Monthly Yearly
  High: Low: Average:
Temperature: 22.9 °C 15.7 °C 18.4 °C
Dew Point: 16.6 °C 13.4 °C 14.8 °C
Humidity: 89.9% 65.3% 80%
Wind Speed: 1.9km/h 0km/h 0.2km/h
Wind Gust: 11.3km/h - -
Wind- - South
Pressure: 1011.7 hPa 1009 hPa -
Precipitation: 1.52 mm    
 
 
Tabular Data for January 12, 2021
Time Temperature Dew Point Pressure Wind Wind Speed Wind Gust Humidity Rainfall Rate (Hourly) solar
00:04 17.7 °C 13.8 °C 1011.7 hPa Calm     78% 0 mm 0 W/m2
00:09 17.6 °C 13.8 °C 1011.7 hPa Calm   1.6 km/h 78% 0 mm 0 W/m2
00:14 17.6 °C 13.7 °C 1011.7 hPa Calm   1.6 km/h 78% 0 mm 0 W/m2
00:19 17.6 °C 13.8 °C 1011.4 hPa Calm   1.6 km/h 78.8% 0 mm 0 W/m2
00:24 17.6 °C 13.9 °C 1011.4 hPa Calm   1.6 km/h 79% 0 mm 0 W/m2
00:29 17.6 °C 13.9 °C 1011.7 hPa Calm   1.6 km/h 79% 0 mm 0 W/m2
00:34 17.5 °C 13.8 °C 1011.4 hPa Calm   1.6 km/h 79% 0 mm 0 W/m2
00:39 17.5 °C 13.8 °C 1011.4 hPa Calm     79% 0 mm 0 W/m2
00:44 17.5 °C 13.8 °C 1011.1 hPa Calm     79% 0 mm 0 W/m2
00:49 17.4 °C 13.8 °C 1011.1 hPa Calm     79% 0 mm 0 W/m2
00:54 17.4 °C 13.8 °C 1011.1 hPa Calm     79% 0 mm 0 W/m2
00:59 17.4 °C 13.8 °C 1010.7 hPa Calm     79% 0 mm 0 W/m2
01:04 17.4 °C 13.8 °C 1010.7 hPa Calm     79.4% 0 mm 0 W/m2
01:09 17.3 °C 13.9 °C 1010.7 hPa Calm   1.6 km/h 80% 0 mm 0 W/m2
01:14 17.3 °C 13.8 °C 1010.7 hPa Calm   1.6 km/h 80% 0 mm 0 W/m2
01:19 17.3 °C 13.8 °C 1010.7 hPa Calm   1.6 km/h 80% 0 mm 0 W/m2
01:24 17.3 °C 13.8 °C 1010.7 hPa Calm   1.6 km/h 80% 0 mm 0 W/m2
01:29 17.3 °C 13.8 °C 1010.7 hPa Calm   1.6 km/h 80% 0 mm 0 W/m2
01:34 17.2 °C 13.9 °C 1010.7 hPa Calm   1.6 km/h 80.7% 0 mm 0 W/m2
01:39 17.2 °C 13.9 °C 1010.7 hPa Calm     81% 0 mm 0 W/m2
01:44 17.2 °C 13.9 °C 1010.7 hPa Calm     81% 0 mm 0 W/m2
01:49 17.2 °C 13.9 °C 1010.7 hPa Calm     81% 0 mm 0 W/m2
01:54 17.2 °C 13.9 °C 1010.7 hPa Calm     81% 0 mm 0 W/m2
01:59 17.2 °C 13.9 °C 1010.7 hPa Calm     81% 0 mm 0 W/m2
02:04 17.2 °C 13.9 °C 1010.4 hPa Calm     81% 0 mm 0 W/m2
02:09 17.1 °C 13.8 °C 1010.4 hPa Calm     81% 0 mm 0 W/m2
02:14 17.1 °C 13.8 °C 1010.4 hPa Calm     81% 0 mm 0 W/m2
02:19 17.1 °C 13.9 °C 1010.4 hPa Calm     81.7% 0 mm 0 W/m2
02:24 17.1 °C 13.9 °C 1010.7 hPa Calm     82% 0 mm 0 W/m2
02:29 17.1 °C 13.9 °C 1010.4 hPa Calm     82% 0 mm 0 W/m2
02:34 17.1 °C 13.9 °C 1010.4 hPa Calm     82% 0 mm 0 W/m2
02:39 17.1 °C 13.9 °C 1010.4 hPa Calm     82% 0 mm 0 W/m2
02:44 17.1 °C 13.9 °C 1010.4 hPa Calm     82% 0 mm 0 W/m2
02:49 17.1 °C 13.9 °C 1010.4 hPa Calm     82% 0 mm 0 W/m2
02:54 17 °C 13.9 °C 1010.4 hPa Calm     82% 0 mm 0 W/m2
02:59 17 °C 13.9 °C 1010.4 hPa Calm     82% 0 mm 0 W/m2
03:04 16.9 °C 13.9 °C 1010 hPa Calm     82% 0 mm 0 W/m2
03:09 16.9 °C 13.9 °C 1010 hPa Calm     82.5% 0 mm 0 W/m2
03:14 16.9 °C 13.8 °C 1010 hPa Calm     82% 0 mm 0 W/m2
03:19 16.9 °C 14 °C 1010 hPa Calm     82.8% 0 mm 0 W/m2
03:24 16.9 °C 13.9 °C 1010 hPa Calm     82.2% 0 mm 0 W/m2
03:29 16.9 °C 13.8 °C 1009.7 hPa Calm     82% 0 mm 0 W/m2
03:34 16.9 °C 13.9 °C 1009.7 hPa Calm     82.5% 0 mm 0 W/m2
03:39 16.9 °C 14.1 °C 1009.7 hPa Calm     83% 0 mm 0 W/m2
03:44 16.9 °C 14.1 °C 1009.7 hPa Calm     83% 0 mm 0 W/m2
03:49 16.9 °C 14.1 °C 1009.7 hPa Calm     83% 0 mm 0 W/m2
03:54 16.9 °C 14.1 °C 1009.4 hPa Calm     83% 0 mm 0 W/m2
03:59 16.9 °C 14 °C 1009.4 hPa Calm     83% 0 mm 0 W/m2
04:04 16.9 °C 14.1 °C 1009.7 hPa Calm     83% 0 mm 0 W/m2
04:09 16.9 °C 14.1 °C 1009.7 hPa Calm     83% 0 mm 0 W/m2
04:14 16.9 °C 14.1 °C 1009.7 hPa Calm     83% 0 mm 0 W/m2
04:19 17 °C 14.1 °C 1009.7 hPa Calm     83% 0 mm 0 W/m2
04:24 17 °C 14.1 °C 1009.7 hPa Calm     83% 0 mm 0 W/m2
04:29 17.1 °C 14.2 °C 1009.7 hPa Calm     83% 0 mm 0 W/m2
04:34 17.1 °C 14.2 °C 1009.4 hPa Calm     83% 0 mm 0 W/m2
04:39 17.1 °C 14.2 °C 1009.4 hPa Calm     83% 0 mm 0 W/m2
04:44 17.1 °C 14.2 °C 1009.4 hPa Calm     83% 0 mm 0 W/m2
04:49 17.1 °C 14.1 °C 1009.4 hPa Calm     83% 0 mm 0 W/m2
04:54 17.1 °C 14.1 °C 1009.4 hPa Calm     83% 0 mm 0 W/m2
04:59 17 °C 14.1 °C 1009.4 hPa Calm     83% 0 mm 0 W/m2
05:04 17 °C 13.9 °C 1009.7 hPa Calm     82.1% 0 mm 0 W/m2
05:09 17 °C 13.9 °C 1009.7 hPa Calm     82% 0 mm 0 W/m2
05:14 17 °C 13.9 °C 1009.7 hPa Calm     82% 0 mm 0 W/m2
05:19 17 °C 13.9 °C 1009.7 hPa Calm     82% 0 mm 0 W/m2
05:24 17 °C 13.9 °C 1009.7 hPa Calm     82% 0 mm 0 W/m2
05:29 17.1 °C 13.9 °C 1009.7 hPa Calm     82% 0 mm 0 W/m2
05:34 17.1 °C 14 °C 1010 hPa Calm     82% 0 mm 0 W/m2
05:39 17.1 °C 14 °C 1010 hPa South 0.3 km/h 4.8 km/h 82% 0 mm 0 W/m2
05:44 17.1 °C 14 °C 1010 hPa SSE 0.8 km/h 6.4 km/h 82% 0 mm 0 W/m2
05:49 17.1 °C 14.1 °C 1010 hPa Calm   6.4 km/h 82.2% 0 mm 0 W/m2
05:54 17.1 °C 14.1 °C 1010 hPa SE 0.2 km/h 6.4 km/h 82.5% 0 mm 0 W/m2
05:59 17.1 °C 14.1 °C 1010 hPa SE 1.8 km/h 6.4 km/h 82.5% 0 mm 0 W/m2
06:04 17.1 °C 14.1 °C 1010 hPa East 1.9 km/h 8 km/h 82% 0 mm 5 W/m2
06:09 17.1 °C 14 °C 1010.4 hPa NE 1.6 km/h 11.3 km/h 82% 0 mm 7 W/m2
06:14 17.1 °C 14 °C 1010.4 hPa ENE 0.6 km/h 11.3 km/h 82% 0 mm 7 W/m2
06:19 17.1 °C 14 °C 1010.4 hPa NE 1.9 km/h 11.3 km/h 82% 0 mm 7 W/m2
06:24 17.1 °C 14 °C 1010.4 hPa ENE 0.6 km/h 11.3 km/h 82.3% 0 mm 11 W/m2
06:29 17.1 °C 14.2 °C 1010.4 hPa ENE 1 km/h 11.3 km/h 83% 0 mm 14 W/m2
06:34 17.1 °C 14.2 °C 1010.4 hPa ENE 0.2 km/h 11.3 km/h 83.6% 0 mm 14 W/m2
06:39 17 °C 14.3 °C 1010.4 hPa ENE 0.5 km/h 4.8 km/h 84% 0 mm 16 W/m2
06:44 16.9 °C 14.4 °C 1010.4 hPa ENE 0.2 km/h 4.8 km/h 84.9% 0 mm 23 W/m2
06:49 16.9 °C 14.5 °C 1010.4 hPa ENE 1.1 km/h 8 km/h 85.5% 0 mm 33 W/m2
06:54 16.8 °C 14.5 °C 1010.4 hPa ENE 0.5 km/h 8 km/h 86% 0 mm 35 W/m2
06:59 16.8 °C 14.5 °C 1010.4 hPa Calm   8 km/h 86% 0 mm 25 W/m2
07:04 16.8 °C 14.4 °C 1010.4 hPa ENE 0.8 km/h 8 km/h 86% 0.25 mm 18 W/m2
07:09 16.8 °C 14.6 °C 1010.4 hPa Calm   6.4 km/h 87% 0.25 mm 33 W/m2
07:14 16.8 °C 14.7 °C 1010.4 hPa ENE 0.5 km/h 6.4 km/h 87.8% 0.25 mm 46 W/m2
07:19 16.8 °C 14.8 °C 1010.4 hPa Calm   6.4 km/h 88% 0.25 mm 49 W/m2
07:24 16.8 °C 14.9 °C 1010.4 hPa ENE 0.2 km/h 6.4 km/h 88.7% 0.25 mm 51 W/m2
07:29 16.8 °C 15 °C 1010.4 hPa Calm   6.4 km/h 89% 0.25 mm 42 W/m2
07:34 16.8 °C 15 °C 1010.4 hPa Calm   6.4 km/h 89% 0.25 mm 25 W/m2
07:39 16.8 °C 15 °C 1010.4 hPa Calm     89% 0.25 mm 26 W/m2
07:44 16.8 °C 14.9 °C 1010.4 hPa Calm     89% 0.25 mm 25 W/m2
07:49 16.7 °C 14.8 °C 1010.4 hPa ENE 0.2 km/h 4.8 km/h 88.7% 0.25 mm 18 W/m2
07:54 16.6 °C 14.6 °C 1010.7 hPa Calm   4.8 km/h 88.1% 0.25 mm 21 W/m2
07:59 16.6 °C 14.7 °C 1010.7 hPa Calm   4.8 km/h 89% 0.51 mm 23 W/m2
08:00 16.6 °C 14.7 °C 1010.7 hPa Calm   4.8 km/h 89% 0.51 mm 18 W/m2
08:09 16.6 °C 14.8 °C 1010.7 hPa Calm     89% 1.02 mm 33 W/m2
08:14 16.6 °C 14.7 °C 1010.7 hPa Calm   1.6 km/h 89% 1.02 mm 54 W/m2
08:19 16.5 °C 14.7 °C 1010.7 hPa Calm   1.6 km/h 89% 1.02 mm 42 W/m2
08:24 16.4 °C 14.7 °C 1010.7 hPa Calm   1.6 km/h 89.6% 1.02 mm 30 W/m2
08:29 16.3 °C 14.6 °C 1010.7 hPa Calm   1.6 km/h 89.3% 1.02 mm 39 W/m2
08:34 16.2 °C 14.4 °C 1010.7 hPa Calm   1.6 km/h 89% 1.02 mm 76 W/m2
08:39 16.2 °C 14.3 °C 1010.7 hPa Calm     89% 0.76 mm 77 W/m2
08:44 16.1 °C 14.3 °C 1010.7 hPa Calm     89.3% 0.76 mm 67 W/m2
08:49 16.1 °C 14.4 °C 1010.7 hPa Calm     89.9% 0.76 mm 67 W/m2
08:54 16 °C 14.2 °C 1011.1 hPa Calm     88.7% 1.02 mm 69 W/m2
08:59 15.8 °C 13.9 °C 1011.1 hPa Calm     88% 1.02 mm 69 W/m2
09:04 15.8 °C 13.8 °C 1011.1 hPa Calm     88% 1.02 mm 33 W/m2
09:09 15.7 °C 13.6 °C 1011.1 hPa Calm     87% 0.76 mm 37 W/m2
09:14 15.7 °C 13.6 °C 1011.1 hPa Calm     87.2% 0.76 mm 53 W/m2
09:19 15.7 °C 13.7 °C 1011.1 hPa Calm     88% 1.02 mm 63 W/m2
09:24 15.7 °C 13.7 °C 1011.1 hPa Calm     88% 1.02 mm 127 W/m2
09:29 15.7 °C 13.9 °C 1011.1 hPa Calm     88.9% 1.02 mm 146 W/m2
09:34 15.7 °C 13.9 °C 1011.1 hPa Calm     89% 1.02 mm 128 W/m2
09:39 15.8 °C 13.9 °C 1010.7 hPa Calm     89% 0.51 mm 125 W/m2
09:44 15.8 °C 14 °C 1011.1 hPa Calm     89% 0.51 mm 116 W/m2
09:49 15.8 °C 14 °C 1011.1 hPa Calm     89% 0.51 mm 97 W/m2
09:54 15.8 °C 13.8 °C 1011.1 hPa Calm     88% 0.51 mm 88 W/m2
09:59 15.7 °C 13.7 °C 1010.7 hPa Calm     87.7% 0.51 mm 83 W/m2
10:04 15.7 °C 13.6 °C 1010.7 hPa Calm     87.2% 0.51 mm 86 W/m2
10:09 15.7 °C 13.4 °C 1011.1 hPa Calm     86.8% 0.25 mm 111 W/m2
10:14 15.7 °C 13.4 °C 1011.1 hPa Calm     86.7% 0.25 mm 135 W/m2
10:19 15.7 °C 13.6 °C 1011.1 hPa Calm     87% 0.25 mm 130 W/m2
10:24 15.8 °C 13.7 °C 1011.1 hPa Calm     87% 0.25 mm 167 W/m2
10:29 15.9 °C 13.9 °C 1010.7 hPa Calm     87.7% 0.25 mm 206 W/m2
10:34 16.2 °C 14.2 °C 1010.7 hPa Calm     88% 0.25 mm 251 W/m2
10:39 16.4 °C 14.2 °C 1010.7 hPa Calm     86.8% 0 mm 260 W/m2
10:44 16.6 °C 14.1 °C 1010.7 hPa Calm     85.5% 0 mm 420 W/m2
10:49 16.8 °C 14.4 °C 1010.7 hPa Calm     85.6% 0 mm 598 W/m2
10:54 17.2 °C 14.6 °C 1010.7 hPa Calm     84.8% 0 mm 575 W/m2
10:59 17.6 °C 15 °C 1010.7 hPa ENE 0.2 km/h 3.2 km/h 84.9% 0 mm 512 W/m2
11:04 17.9 °C 15.1 °C 1010.7 hPa Calm   3.2 km/h 83.6% 0 mm 383 W/m2
11:09 18.1 °C 14.8 °C 1010.7 hPa Calm     81.7% 0 mm 369 W/m2
11:14 18.2 °C 15.1 °C 1010.7 hPa Calm     82% 0 mm 369 W/m2
11:19 18.4 °C 15.1 °C 1010.7 hPa Calm     81% 0 mm 376 W/m2
11:24 18.6 °C 15.2 °C 1010.7 hPa Calm   1.6 km/h 80.6% 0 mm 439 W/m2
11:29 18.6 °C 14.7 °C 1010.7 hPa Calm   1.6 km/h 78% 0 mm 710 W/m2
11:34 18.8 °C 15.4 °C 1010.7 hPa Calm   1.6 km/h 80.4% 0 mm 710 W/m2
11:39 19.1 °C 15.2 °C 1010.7 hPa Calm     78.2% 0 mm 895 W/m2
11:44 19.2 °C 15 °C 1010.7 hPa ENE 0.5 km/h 3.2 km/h 76.4% 0 mm 895 W/m2
11:49 19.2 °C 14.8 °C 1010.7 hPa Calm   3.2 km/h 75.9% 0 mm 529 W/m2
11:54 19.2 °C 15.1 °C 1010.7 hPa NE 0.8 km/h 8 km/h 76.9% 0 mm 353 W/m2
11:59 19.3 °C 15.3 °C 1010.7 hPa West 1 km/h 8 km/h 77.5% 0 mm 281 W/m2
12:00 19.4 °C 15.3 °C 1010.7 hPa Calm   8 km/h 77% 0 mm 281 W/m2
12:09 19.6 °C 15.2 °C 1010.7 hPa Calm     76% 0 mm 220 W/m2
12:14 19.6 °C 15.1 °C 1010.7 hPa Calm     75.2% 0 mm 167 W/m2
12:19 19.6 °C 14.8 °C 1010.7 hPa Calm     73.7% 0 mm 169 W/m2
12:24 19.5 °C 14.7 °C 1010.7 hPa Calm     73.9% 0 mm 158 W/m2
12:29 19.4 °C 14.8 °C 1010.7 hPa Calm     74.9% 0 mm 121 W/m2
12:34 19.4 °C 15.3 °C 1010.7 hPa Calm     77.2% 0 mm 113 W/m2
12:39 19.4 °C 15.2 °C 1010.7 hPa Calm     76.4% 0 mm 98 W/m2
12:44 19.4 °C 15.2 °C 1010.7 hPa Calm     76.5% 0 mm 114 W/m2
12:49 19.4 °C 15.1 °C 1010.7 hPa Calm     76% 0 mm 128 W/m2
12:54 19.4 °C 15.3 °C 1010.7 hPa Calm   1.6 km/h 77.2% 0 mm 127 W/m2
12:59 19.5 °C 15.6 °C 1010.7 hPa West 0.3 km/h 4.8 km/h 78.2% 0 mm 156 W/m2
13:04 19.4 °C 15.4 °C 1010.7 hPa Calm   4.8 km/h 77.5% 0 mm 190 W/m2
13:09 19.4 °C 15.5 °C 1010.7 hPa Calm   3.2 km/h 78.1% 0 mm 257 W/m2
13:14 19.4 °C 15.8 °C 1010.7 hPa Calm   3.2 km/h 79.6% 0 mm 315 W/m2
13:19 19.7 °C 16.1 °C 1010.7 hPa West 0.2 km/h 3.2 km/h 79.5% 0 mm 329 W/m2
13:24 20 °C 16.3 °C 1010.7 hPa Calm   3.2 km/h 79.7% 0 mm 338 W/m2
13:29 20.2 °C 16.1 °C 1010.7 hPa West 1.1 km/h 4.8 km/h 77.3% 0 mm 359 W/m2
13:34 20.3 °C 16.2 °C 1010.7 hPa Calm   4.8 km/h 77.1% 0 mm 364 W/m2
13:39 20.4 °C 16 °C 1010.7 hPa West 0.8 km/h 6.4 km/h 75.8% 0 mm 367 W/m2
13:44 20.5 °C 16.1 °C 1010.7 hPa Calm   6.4 km/h 75.8% 0 mm 390 W/m2
13:49 20.6 °C 16.1 °C 1010.7 hPa West 0.3 km/h 6.4 km/h 75.8% 0 mm 360 W/m2
13:54 20.7 °C 16.3 °C 1010.7 hPa Calm   6.4 km/h 75.9% 0 mm 367 W/m2
13:59 20.8 °C 16.4 °C 1010.7 hPa Calm   6.4 km/h 75.9% 0 mm 339 W/m2
14:04 21 °C 16.6 °C 1010.7 hPa Calm   6.4 km/h 75.6% 0 mm 315 W/m2
14:09 21.2 °C 16.2 °C 1010.4 hPa Calm   1.6 km/h 73.4% 0 mm 299 W/m2
14:14 21.2 °C 15.9 °C 1010.4 hPa Calm   1.6 km/h 71.9% 0 mm 274 W/m2
14:19 21.2 °C 16.2 °C 1010.4 hPa West 0.2 km/h 4.8 km/h 73% 0 mm 241 W/m2
14:24 21.2 °C 16.1 °C 1010.4 hPa West 1.1 km/h 8 km/h 72.8% 0 mm 188 W/m2
14:29 21.2 °C 16.1 °C 1010.4 hPa West 0.2 km/h 8 km/h 72.8% 0 mm 155 W/m2
14:34 21.1 °C 16 °C 1010.4 hPa West 0.2 km/h 8 km/h 72.4% 0 mm 141 W/m2
14:39 21.1 °C 15.9 °C 1010.4 hPa Calm   3.2 km/h 72.2% 0 mm 142 W/m2
14:44 20.9 °C 15.8 °C 1010.4 hPa West 0.6 km/h 4.8 km/h 72.8% 0 mm 167 W/m2
14:49 20.8 °C 16.1 °C 1010.4 hPa Calm   4.8 km/h 74.4% 0 mm 234 W/m2
14:54 20.8 °C 16.1 °C 1010.4 hPa Calm   4.8 km/h 74% 0 mm 422 W/m2
14:57 20.9 °C 16.1 °C 1010.4 hPa Calm   4.8 km/h 74% 0 mm 605 W/m2
15:00 21 °C 16.4 °C 1010 hPa Calm   6.4 km/h 75% 0 mm 226 W/m2
15:30 22.6 °C 16.6 °C 1010 hPa Calm   9.7 km/h 69% 0 mm 778 W/m2
16:04 22.4 °C 15.8 °C 1010 hPa Calm   9.7 km/h 66.2% 0 mm 778 W/m2
16:09 22.4 °C 15.9 °C 1010 hPa West 0.5 km/h 8 km/h 66.8% 0 mm 754 W/m2
16:14 22.4 °C 16.2 °C 1010 hPa West 0.5 km/h 8 km/h 68.2% 0 mm 754 W/m2
16:19 22.3 °C 16.2 °C 1010 hPa West 0.2 km/h 8 km/h 68.1% 0 mm 179 W/m2
16:24 22.3 °C 16.4 °C 1010 hPa West 0.2 km/h 8 km/h 69.2% 0 mm 169 W/m2
16:29 22.3 °C 16.4 °C 1010 hPa West 0.2 km/h 8 km/h 69.3% 0 mm 148 W/m2
16:34 22.4 °C 16.5 °C 1010 hPa Calm   8 km/h 69.5% 0 mm 127 W/m2
16:39 22.6 °C 16.6 °C 1009.7 hPa West 0.5 km/h 4.8 km/h 68.9% 0 mm 135 W/m2
16:44 22.7 °C 16.3 °C 1009.7 hPa West 0.2 km/h 4.8 km/h 67.1% 0 mm 102 W/m2
16:49 22.8 °C 16.4 °C 1009.7 hPa West 0.5 km/h 4.8 km/h 67.2% 0 mm 84 W/m2
16:54 22.8 °C 16.3 °C 1009.7 hPa WSW 1.1 km/h 11.3 km/h 66.7% 0 mm 70 W/m2
16:59 22.9 °C 16.4 °C 1009.4 hPa Calm   11.3 km/h 66.9% 0 mm 58 W/m2
17:04 22.9 °C 16.1 °C 1009.4 hPa Calm   11.3 km/h 65.6% 0 mm 54 W/m2
17:09 22.8 °C 15.9 °C 1009.4 hPa WSW 0.2 km/h 3.2 km/h 65.4% 0 mm 51 W/m2
17:14 22.7 °C 15.9 °C 1009.4 hPa Calm   3.2 km/h 65.5% 0 mm 46 W/m2
17:19 22.6 °C 15.7 °C 1009.4 hPa WSW 0.8 km/h 9.7 km/h 65.3% 0 mm 44 W/m2
17:24 22.5 °C 15.8 °C 1009.4 hPa WSW 0.3 km/h 9.7 km/h 66% 0 mm 42 W/m2
17:29 22.4 °C 15.8 °C 1009.4 hPa WSW 0.5 km/h 9.7 km/h 66.1% 0 mm 42 W/m2
17:34 22.4 °C 15.9 °C 1009.4 hPa WSW 0.2 km/h 9.7 km/h 66.4% 0 mm 42 W/m2
17:39 22.4 °C 15.8 °C 1009.4 hPa Calm   1.6 km/h 66% 0 mm 42 W/m2
17:44 22.4 °C 15.9 °C 1009.4 hPa Calm   1.6 km/h 66.3% 0 mm 44 W/m2
17:49 22.5 °C 16.1 °C 1009.4 hPa WSW 0.3 km/h 8 km/h 67.2% 0 mm 42 W/m2
17:54 22.4 °C 15.7 °C 1009.4 hPa Calm   8 km/h 65.6% 0 mm 40 W/m2
17:55 22.4 °C 15.8 °C 1009 hPa Calm   8 km/h 66% 0 mm 39 W/m2
18:30 22.7 °C 16 °C 1009.4 hPa Calm   3.2 km/h 66% 0 mm 34 W/m2
19:00 22.6 °C 16.1 °C 1009.7 hPa Calm   6.4 km/h 67% 0 mm 31 W/m2
19:30 22.1 °C 16.4 °C 1009.4 hPa Calm   8 km/h 70% 0 mm 25 W/m2
20:04 21.2 °C 16.3 °C 1009.4 hPa Calm     73.6% 0 mm 11 W/m2
20:09 21.1 °C 16.3 °C 1009.4 hPa Calm     74% 0 mm 9 W/m2
20:14 21 °C 16.3 °C 1009.4 hPa WSW 0.2 km/h 3.2 km/h 74.2% 0 mm 5 W/m2
20:19 20.8 °C 16.3 °C 1009.4 hPa Calm   3.2 km/h 75% 0 mm 5 W/m2
20:24 20.7 °C 16.1 °C 1009.4 hPa WSW 0.3 km/h 8 km/h 75% 0 mm 0 W/m2
20:29 20.5 °C 16.1 °C 1009.4 hPa WSW 0.2 km/h 8 km/h 75.6% 0 mm 0 W/m2
20:34 20.3 °C 16 °C 1009.4 hPa Calm   8 km/h 76% 0 mm 0 W/m2
20:39 20.2 °C 15.9 °C 1009.7 hPa Calm     76.7% 0 mm 0 W/m2
20:43 20.1 °C 15.9 °C 1009.7 hPa Calm     77% 0 mm 0 W/m2
Hartford County Weather
Compliments of Weather Underground - 2 mb